Time,TemperatureF,DewpointF,PressureIn,WindDirection,WindDirectionDegrees,WindSpeedMPH,WindSpeedGustMPH,Humidity,HourlyPrecipIn,Conditions,Clouds,dailyrainin,SoftwareType,DateUTC
2013-02-07 00:04:00,24.8,15.4,29.94,East,97,3.5,3.5,67,0.00,CLR,,0.00,WeatherDisplay:10.37,2013-02-07 06:04:00,
2013-02-07 00:09:00,24.8,15.4,29.94,East,87,3.5,3.5,67,0.00,CLR,,0.00,WeatherDisplay:10.37,2013-02-07 06:09:00,
2013-02-07 00:14:00,24.8,15.4,29.94,SE,130,3.5,3.5,67,0.00,CLR,,0.00,WeatherDisplay:10.37,2013-02-07 06:14:00,
2013-02-07 00:19:00,24.8,15.4,29.94,East,83,3.5,3.5,67,0.00,CLR,,0.00,WeatherDisplay:10.37,2013-02-07 06:19:00,
2013-02-07 00:24:00,25.0,15.6,29.94,ENE,78,3.5,3.5,67,0.00,CLR,,0.00,WeatherDisplay:10.37,2013-02-07 06:24:00,
2013-02-07 00:29:00,25.0,15.6,29.94,East,97,3.6,3.6,67,0.00,CLR,,0.00,WeatherDisplay:10.37,2013-02-07 06:29:00,
2013-02-07 00:35:00,25.0,15.6,29.94,East,89,3.5,3.5,67,0.00,CLR,,0.00,WeatherDisplay:10.37,2013-02-07 06:35:00,
2013-02-07 00:40:00,25.0,15.6,29.94,SE,126,3.5,3.5,67,0.00,CLR,,0.00,WeatherDisplay:10.37,2013-02-07 06:40:00,
2013-02-07 00:45:00,25.0,15.6,29.94,East,101,2.7,0.0,67,0.00,CLR,,0.00,WeatherDisplay:10.37,2013-02-07 06:45:00,
2013-02-07 00:50:00,25.0,15.6,29.94,East,95,2.3,2.3,67,0.00,CLR,,0.00,WeatherDisplay:10.37,2013-02-07 06:50:00,
2013-02-07 00:55:00,25.0,15.6,29.94,East,87,3.6,3.6,67,0.00,CLR,,0.00,WeatherDisplay:10.37,2013-02-07 06:55:00,
2013-02-07 01:01:00,25.0,15.6,29.94,East,93,3.5,3.5,67,0.00,CLR,,0.00,WeatherDisplay:10.37,2013-02-07 07:01:00,
2013-02-07 01:06:00,25.0,15.6,29.94,East,89,3.5,3.5,67,0.00,CLR,,0.00,WeatherDisplay:10.37,2013-02-07 07:06:00,
2013-02-07 01:11:00,25.2,15.7,29.94,East,99,3.5,3.5,67,0.00,CLR,,0.00,WeatherDisplay:10.37,2013-02-07 07:11:00,
2013-02-07 01:16:00,25.2,15.7,29.94,East,80,5.8,5.8,67,0.00,CLR,,0.00,WeatherDisplay:10.37,2013-02-07 07:16:00,
2013-02-07 01:21:00,25.2,15.7,29.94,East,90,3.5,3.5,67,0.00,CLR,,0.00,WeatherDisplay:10.37,2013-02-07 07:21:00,
2013-02-07 01:27:00,25.2,15.7,29.94,East,88,3.6,3.6,67,0.00,CLR,,0.00,WeatherDisplay:10.37,2013-02-07 07:27:00,
2013-02-07 01:32:00,25.2,15.7,29.94,East,79,3.5,3.5,67,0.00,CLR,,0.00,WeatherDisplay:10.37,2013-02-07 07:32:00,
2013-02-07 01:37:00,25.2,15.7,29.94,ENE,76,3.6,3.6,67,0.00,CLR,,0.00,WeatherDisplay:10.37,2013-02-07 07:37:00,
2013-02-07 01:42:00,25.2,15.7,29.94,NE,48,3.5,3.5,67,0.00,CLR,,0.00,WeatherDisplay:10.37,2013-02-07 07:42:00,
2013-02-07 01:48:00,25.2,15.7,29.94,East,83,3.5,3.5,67,0.00,CLR,,0.00,WeatherDisplay:10.37,2013-02-07 07:48:00,
2013-02-07 01:53:00,25.2,15.7,29.94,ENE,70,3.6,3.6,67,0.00,CLR,,0.00,WeatherDisplay:10.37,2013-02-07 07:53:00,
2013-02-07 01:58:00,25.2,15.7,29.94,East,82,3.5,3.5,67,0.00,CLR,,0.00,WeatherDisplay:10.37,2013-02-07 07:58:00,
2013-02-07 02:03:00,25.2,15.7,29.94,East,81,3.5,3.5,67,0.00,CLR,,0.00,WeatherDisplay:10.37,2013-02-07 08:03:00,
2013-02-07 02:09:00,25.2,15.7,29.94,NE,42,5.8,5.8,67,0.00,CLR,,0.00,WeatherDisplay:10.37,2013-02-07 08:09:00,
2013-02-07 02:14:00,25.2,15.7,29.94,ENE,69,4.0,4.0,67,0.00,CLR,,0.00,WeatherDisplay:10.37,2013-02-07 08:14:00,
2013-02-07 02:19:00,25.2,15.7,29.94,East,82,5.8,5.8,67,0.00,CLR,,0.00,WeatherDisplay:10.37,2013-02-07 08:19:00,
2013-02-07 02:24:00,25.2,16.1,29.94,ENE,77,5.8,5.8,68,0.00,CLR,,0.00,WeatherDisplay:10.37,2013-02-07 08:24:00,
2013-02-07 02:29:00,25.2,16.1,29.94,East,81,4.6,4.6,68,0.00,CLR,,0.00,WeatherDisplay:10.37,2013-02-07 08:29:00,
2013-02-07 02:34:00,25.2,16.1,29.94,ENE,59,3.5,3.5,68,0.00,CLR,,0.00,WeatherDisplay:10.37,2013-02-07 08:34:00,
2013-02-07 02:39:00,25.2,16.1,29.94,East,97,4.6,4.6,68,0.00,CLR,,0.00,WeatherDisplay:10.37,2013-02-07 08:39:00,
2013-02-07 02:45:00,25.2,16.1,29.94,East,82,3.5,3.5,68,0.00,CLR,,0.00,WeatherDisplay:10.37,2013-02-07 08:45:00,
2013-02-07 02:50:00,25.2,16.1,29.94,NE,49,4.0,4.0,68,0.00,CLR,,0.00,WeatherDisplay:10.37,2013-02-07 08:50:00,
2013-02-07 02:55:00,25.2,16.1,29.94,East,84,4.9,4.9,68,0.00,CLR,,0.00,WeatherDisplay:10.37,2013-02-07 08:55:00,
2013-02-07 03:00:00,25.3,16.2,29.94,East,83,3.5,4.0,68,0.00,CLR,,0.00,WeatherDisplay:10.37,2013-02-07 09:00:00,
2013-02-07 03:05:00,25.3,16.2,29.94,ENE,65,3.5,3.5,68,0.00,CLR,,0.00,WeatherDisplay:10.37,2013-02-07 09:05:00,
2013-02-07 03:10:00,25.3,16.2,29.94,ENE,68,3.5,3.5,68,0.00,CLR,,0.00,WeatherDisplay:10.37,2013-02-07 09:10:00,
2013-02-07 03:15:00,25.3,16.2,29.94,ENE,77,3.5,3.5,68,0.00,CLR,,0.00,WeatherDisplay:10.37,2013-02-07 09:15:00,
2013-02-07 03:20:00,25.3,16.6,29.94,East,81,3.6,3.6,69,0.00,CLR,,0.00,WeatherDisplay:10.37,2013-02-07 09:20:00,
2013-02-07 03:26:00,25.3,16.6,29.94,East,83,5.8,5.8,69,0.00,CLR,,0.00,WeatherDisplay:10.37,2013-02-07 09:26:00,
2013-02-07 03:31:00,25.3,16.6,29.94,NE,51,3.6,3.6,69,0.00,CLR,,0.00,WeatherDisplay:10.37,2013-02-07 09:31:00,
2013-02-07 03:36:00,25.3,16.6,29.94,ENE,75,5.8,5.8,69,0.00,CLR,,0.00,WeatherDisplay:10.37,2013-02-07 09:36:00,
2013-02-07 03:41:00,25.3,16.6,29.94,East,89,3.5,3.6,69,0.00,CLR,,0.00,WeatherDisplay:10.37,2013-02-07 09:41:00,
2013-02-07 03:47:00,25.2,16.4,29.94,East,82,5.8,5.8,69,0.00,CLR,,0.00,WeatherDisplay:10.37,2013-02-07 09:47:00,
2013-02-07 03:52:00,25.2,16.4,29.94,ENE,65,4.0,4.0,69,0.00,CLR,,0.00,WeatherDisplay:10.37,2013-02-07 09:52:00,
2013-02-07 03:57:00,25.2,16.4,29.94,East,94,5.8,5.8,69,0.00,CLR,,0.00,WeatherDisplay:10.37,2013-02-07 09:57:00,
2013-02-07 04:02:00,25.2,16.4,29.94,ENE,75,4.6,4.6,69,0.00,CLR,,0.00,WeatherDisplay:10.37,2013-02-07 10:02:00,
2013-02-07 04:07:00,25.2,16.4,29.94,ENE,73,5.8,5.8,69,0.00,CLR,,0.00,WeatherDisplay:10.37,2013-02-07 10:07:00,
2013-02-07 04:13:00,25.2,16.7,29.94,East,79,3.5,3.6,70,0.00,CLR,,0.00,WeatherDisplay:10.37,2013-02-07 10:13:00,
2013-02-07 04:18:00,25.2,16.7,29.94,ENE,78,5.8,5.8,70,0.00,CLR,,0.00,WeatherDisplay:10.37,2013-02-07 10:18:00,
2013-02-07 04:23:00,25.2,16.7,29.94,East,88,5.8,5.8,70,0.00,CLR,,0.00,WeatherDisplay:10.37,2013-02-07 10:23:00,
2013-02-07 04:29:00,25.2,16.7,29.94,East,87,3.6,3.6,70,0.00,CLR,,0.00,WeatherDisplay:10.37,2013-02-07 10:29:00,
2013-02-07 04:34:00,25.2,16.7,29.94,ENE,73,5.8,5.8,70,0.00,CLR,,0.00,WeatherDisplay:10.37,2013-02-07 10:34:00,
2013-02-07 04:39:00,25.2,17.1,29.94,ENE,68,5.8,5.8,71,0.00,CLR,,0.00,WeatherDisplay:10.37,2013-02-07 10:39:00,
2013-02-07 04:44:00,25.2,17.1,29.94,ENE,67,5.8,5.8,71,0.00,CLR,,0.00,WeatherDisplay:10.37,2013-02-07 10:44:00,
2013-02-07 04:49:00,25.2,17.1,29.94,East,79,3.5,3.6,71,0.00,CLR,,0.00,WeatherDisplay:10.37,2013-02-07 10:49:00,
2013-02-07 04:54:00,25.2,17.1,29.94,ENE,74,3.5,3.5,71,0.00,CLR,,0.00,WeatherDisplay:10.37,2013-02-07 10:54:00,
2013-02-07 05:00:00,25.2,17.1,29.94,NE,36,5.4,5.4,71,0.00,CLR,,0.00,WeatherDisplay:10.37,2013-02-07 11:00:00,
2013-02-07 05:05:00,25.2,17.4,29.94,ENE,70,5.8,5.8,72,0.00,CLR,,0.00,WeatherDisplay:10.37,2013-02-07 11:05:00,
2013-02-07 05:10:00,25.2,17.4,29.94,ENE,65,4.6,4.6,72,0.00,CLR,,0.00,WeatherDisplay:10.37,2013-02-07 11:10:00,
2013-02-07 05:15:00,25.2,17.4,29.94,East,89,3.5,3.5,72,0.00,CLR,,0.00,WeatherDisplay:10.37,2013-02-07 11:15:00,
2013-02-07 05:20:00,25.2,17.4,29.94,East,87,3.5,3.5,72,0.00,CLR,,0.00,WeatherDisplay:10.37,2013-02-07 11:20:00,
2013-02-07 05:25:00,25.2,17.4,29.94,East,88,3.6,3.6,72,0.00,CLR,,0.00,WeatherDisplay:10.37,2013-02-07 11:25:00,
2013-02-07 05:30:00,25.2,17.4,29.94,ENE,66,3.5,3.5,72,0.00,CLR,,0.00,WeatherDisplay:10.37,2013-02-07 11:30:00,
2013-02-07 05:35:00,25.2,17.7,29.94,ENE,70,3.6,3.6,73,0.00,CLR,,0.00,WeatherDisplay:10.37,2013-02-07 11:35:00,
2013-02-07 05:40:00,25.2,17.7,29.94,East,97,3.5,3.5,73,0.00,CLR,,0.00,WeatherDisplay:10.37,2013-02-07 11:40:00,
2013-02-07 05:46:00,25.2,17.7,29.94,NE,41,3.5,3.6,73,0.00,CLR,,0.00,WeatherDisplay:10.37,2013-02-07 11:46:00,
2013-02-07 05:51:00,25.2,17.7,29.94,East,82,3.5,3.5,73,0.00,CLR,,0.00,WeatherDisplay:10.37,2013-02-07 11:51:00,
2013-02-07 05:56:00,25.2,17.7,29.94,NE,52,3.6,3.6,73,0.00,CLR,,0.00,WeatherDisplay:10.37,2013-02-07 11:56:00,
2013-02-07 06:01:00,25.2,18.0,29.94,NE,54,2.3,2.7,74,0.00,CLR,,0.00,WeatherDisplay:10.37,2013-02-07 12:01:00,
2013-02-07 06:07:00,25.0,17.9,29.94,ENE,76,3.5,3.5,74,0.00,CLR,,0.00,WeatherDisplay:10.37,2013-02-07 12:07:00,
2013-02-07 06:12:00,25.0,17.9,29.94,NE,44,3.5,3.5,74,0.00,CLR,,0.00,WeatherDisplay:10.37,2013-02-07 12:12:00,
2013-02-07 06:17:00,25.0,17.9,29.94,ENE,77,3.5,3.6,74,0.00,CLR,,0.00,WeatherDisplay:10.37,2013-02-07 12:17:00,
2013-02-07 06:22:00,25.0,17.9,29.94,NE,44,3.5,3.5,74,0.00,CLR,,0.00,WeatherDisplay:10.37,2013-02-07 12:22:00,
2013-02-07 06:27:00,25.0,17.9,29.94,East,84,3.5,3.5,74,0.00,CLR,,0.00,WeatherDisplay:10.37,2013-02-07 12:27:00,
2013-02-07 06:33:00,25.0,18.2,29.94,East,79,4.0,4.0,75,0.00,CLR,,0.00,WeatherDisplay:10.37,2013-02-07 12:33:00,
2013-02-07 06:38:00,25.0,18.2,29.94,NE,56,4.6,4.6,75,0.00,CLR,,0.00,WeatherDisplay:10.37,2013-02-07 12:38:00,
2013-02-07 06:43:00,25.0,18.2,29.94,NNE,21,3.5,3.5,75,0.00,CLR,,0.00,WeatherDisplay:10.37,2013-02-07 12:43:00,
2013-02-07 06:48:00,25.0,18.2,29.94,East,84,3.5,3.5,75,0.00,CLR,,0.00,WeatherDisplay:10.37,2013-02-07 12:48:00,
2013-02-07 06:54:00,25.0,18.2,29.94,ENE,59,4.6,4.6,75,0.00,CLR,,0.00,WeatherDisplay:10.37,2013-02-07 12:54:00,
2013-02-07 06:59:00,25.0,18.2,29.94,ENE,64,3.5,3.5,75,0.00,CLR,,0.00,WeatherDisplay:10.37,2013-02-07 12:59:00,
2013-02-07 07:04:00,25.0,18.2,29.94,East,85,3.5,3.5,75,0.00,CLR,,0.00,WeatherDisplay:10.37,2013-02-07 13:04:00,
2013-02-07 07:09:00,25.0,18.2,29.94,SE,124,3.5,3.5,75,0.00,CLR,,0.00,WeatherDisplay:10.37,2013-02-07 13:09:00,
2013-02-07 07:15:00,25.0,18.5,29.94,ENE,72,5.8,5.8,76,0.00,CLR,,0.00,WeatherDisplay:10.37,2013-02-07 13:15:00,
2013-02-07 07:20:00,25.0,18.5,29.94,East,87,3.5,0.0,76,0.00,CLR,,0.00,WeatherDisplay:10.37,2013-02-07 13:20:00,
2013-02-07 07:25:00,25.0,18.5,29.94,East,79,3.5,3.5,76,0.00,CLR,,0.00,WeatherDisplay:10.37,2013-02-07 13:25:00,
2013-02-07 07:30:00,25.0,18.5,29.94,East,88,3.5,3.5,76,0.00,CLR,,0.00,WeatherDisplay:10.37,2013-02-07 13:30:00,
2013-02-07 07:36:00,25.0,18.5,29.94,ENE,74,3.5,3.5,76,0.00,CLR,,0.00,WeatherDisplay:10.37,2013-02-07 13:36:00,
2013-02-07 07:41:00,25.0,18.5,29.94,ESE,102,4.6,4.6,76,0.00,CLR,,0.00,WeatherDisplay:10.37,2013-02-07 13:41:00,
2013-02-07 07:46:00,25.0,18.5,29.94,ENE,69,3.5,3.5,76,0.00,CLR,,0.00,WeatherDisplay:10.37,2013-02-07 13:46:00,
2013-02-07 07:51:00,25.0,18.5,29.94,East,86,5.8,5.8,76,0.00,CLR,,0.00,WeatherDisplay:10.37,2013-02-07 13:51:00,
2013-02-07 07:56:00,25.0,18.8,29.94,ENE,62,4.0,4.0,77,0.00,CLR,,0.00,WeatherDisplay:10.37,2013-02-07 13:56:00,
2013-02-07 08:02:00,25.2,19.0,29.94,NE,55,5.8,5.8,77,0.00,CLR,,0.00,WeatherDisplay:10.37,2013-02-07 14:02:00,
2013-02-07 08:07:00,25.2,19.0,29.97,ENE,74,5.8,5.8,77,0.00,CLR,,0.00,WeatherDisplay:10.37,2013-02-07 14:07:00,
2013-02-07 08:12:00,25.2,19.0,29.97,NE,39,5.8,5.8,77,0.00,CLR,,0.00,WeatherDisplay:10.37,2013-02-07 14:12:00,
2013-02-07 08:17:00,25.2,19.0,29.97,ENE,58,5.8,5.8,77,0.00,CLR,,0.00,WeatherDisplay:10.37,2013-02-07 14:17:00,
2013-02-07 08:22:00,25.2,19.0,29.97,ENE,77,4.6,4.6,77,0.00,CLR,,0.00,WeatherDisplay:10.37,2013-02-07 14:22:00,
2013-02-07 08:27:00,25.2,19.0,29.97,ENE,78,3.5,3.5,77,0.00,CLR,,0.00,WeatherDisplay:10.37,2013-02-07 14:27:00,
2013-02-07 08:33:00,25.3,19.1,29.97,ESE,105,5.8,5.8,77,0.00,CLR,,0.00,WeatherDisplay:10.37,2013-02-07 14:33:00,
2013-02-07 08:38:00,25.3,19.1,29.97,East,85,3.5,3.6,77,0.00,CLR,,0.00,WeatherDisplay:10.37,2013-02-07 14:38:00,
2013-02-07 08:43:00,25.3,19.1,29.97,East,83,5.8,5.8,77,0.00,CLR,,0.00,WeatherDisplay:10.37,2013-02-07 14:43:00,
2013-02-07 08:48:00,25.3,19.1,29.97,NE,45,3.5,3.5,77,0.00,CLR,,0.00,WeatherDisplay:10.37,2013-02-07 14:48:00,
2013-02-07 08:54:00,25.5,19.3,29.97,ENE,58,3.5,3.6,77,0.00,CLR,,0.00,WeatherDisplay:10.37,2013-02-07 14:54:00,
2013-02-07 08:59:00,25.5,19.6,29.97,East,84,5.8,5.8,78,0.00,CLR,,0.00,WeatherDisplay:10.37,2013-02-07 14:59:00,
2013-02-07 09:04:00,25.7,19.8,29.97,East,83,2.3,0.0,78,0.00,CLR,,0.00,WeatherDisplay:10.37,2013-02-07 15:04:00,
2013-02-07 09:09:00,25.9,20.0,29.97,ENE,71,3.5,3.5,78,0.00,CLR,,0.00,WeatherDisplay:10.37,2013-02-07 15:09:00,
2013-02-07 09:14:00,26.1,20.1,29.97,NNE,21,3.5,3.5,78,0.00,CLR,,0.00,WeatherDisplay:10.37,2013-02-07 15:14:00,
2013-02-07 09:19:00,26.1,20.1,29.97,ENE,60,3.5,0.0,78,0.00,CLR,,0.00,WeatherDisplay:10.37,2013-02-07 15:19:00,
2013-02-07 09:25:00,26.1,20.1,29.97,East,82,3.5,3.5,78,0.00,CLR,,0.00,WeatherDisplay:10.37,2013-02-07 15:25:00,
2013-02-07 09:30:00,26.2,20.3,29.97,East,85,3.5,3.5,78,0.00,CLR,,0.00,WeatherDisplay:10.37,2013-02-07 15:30:00,
2013-02-07 09:35:00,26.2,20.3,29.97,North,349,3.5,3.5,78,0.00,CLR,,0.00,WeatherDisplay:10.37,2013-02-07 15:35:00,
2013-02-07 09:40:00,26.4,20.5,29.97,NE,45,3.6,3.6,78,0.00,CLR,,0.00,WeatherDisplay:10.37,2013-02-07 15:40:00,
2013-02-07 09:46:00,26.4,20.5,29.97,ESE,120,4.6,4.6,78,0.00,CLR,,0.00,WeatherDisplay:10.37,2013-02-07 15:46:00,
2013-02-07 09:51:00,26.4,20.5,30.00,NNE,32,3.5,4.0,78,0.00,CLR,,0.00,WeatherDisplay:10.37,2013-02-07 15:51:00,
2013-02-07 09:56:00,26.6,20.4,30.00,ENE,71,3.5,3.5,77,0.00,CLR,,0.00,WeatherDisplay:10.37,2013-02-07 15:56:00,
2013-02-07 10:01:00,26.6,20.4,30.00,ENE,64,5.8,5.8,77,0.00,CLR,,0.00,WeatherDisplay:10.37,2013-02-07 16:01:00,
2013-02-07 10:07:00,26.6,20.4,30.00,NNE,12,8.1,8.1,77,0.00,CLR,,0.00,WeatherDisplay:10.37,2013-02-07 16:07:00,
2013-02-07 10:12:00,26.4,20.2,30.00,NE,49,5.4,5.4,77,0.00,CLR,,0.00,WeatherDisplay:10.37,2013-02-07 16:12:00,
2013-02-07 10:17:00,26.4,20.2,30.00,East,80,3.5,3.5,77,0.00,CLR,,0.00,WeatherDisplay:10.37,2013-02-07 16:17:00,
2013-02-07 10:22:00,26.6,20.4,30.00,ENE,69,3.5,3.5,77,0.00,CLR,,0.00,WeatherDisplay:10.37,2013-02-07 16:22:00,
2013-02-07 10:28:00,26.6,20.4,30.00,NNE,25,5.8,5.8,77,0.00,CLR,,0.00,WeatherDisplay:10.37,2013-02-07 16:28:00,
2013-02-07 10:33:00,26.6,20.1,30.00,ENE,66,5.8,5.8,76,0.00,CLR,,0.00,WeatherDisplay:10.37,2013-02-07 16:33:00,
2013-02-07 10:38:00,26.6,20.1,30.00,ENE,64,6.9,6.9,76,0.00,CLR,,0.00,WeatherDisplay:10.37,2013-02-07 16:38:00,
2013-02-07 10:43:00,26.6,20.1,30.00,East,91,8.1,8.1,76,0.00,CLR,,0.00,WeatherDisplay:10.37,2013-02-07 16:43:00,
2013-02-07 10:49:00,26.6,20.1,29.97,NE,43,5.8,5.8,76,0.00,CLR,,0.00,WeatherDisplay:10.37,2013-02-07 16:49:00,
2013-02-07 10:54:00,26.8,19.9,29.97,ESE,105,5.8,5.8,75,0.00,CLR,,0.00,WeatherDisplay:10.37,2013-02-07 16:54:00,
2013-02-07 10:59:00,26.8,19.9,29.97,NNE,31,6.3,6.3,75,0.00,CLR,,0.00,WeatherDisplay:10.37,2013-02-07 16:59:00,
2013-02-07 11:04:00,26.8,19.6,30.00,East,88,6.9,6.9,74,0.00,CLR,,0.00,WeatherDisplay:10.37,2013-02-07 17:04:00,
2013-02-07 11:10:00,26.8,19.6,30.00,East,84,3.5,4.0,74,0.00,CLR,,0.00,WeatherDisplay:10.37,2013-02-07 17:10:00,
2013-02-07 11:15:00,27.0,19.8,30.00,East,85,6.9,6.9,74,0.00,CLR,,0.00,WeatherDisplay:10.37,2013-02-07 17:15:00,
2013-02-07 11:20:00,27.0,19.5,29.97,East,87,5.8,5.8,73,0.00,CLR,,0.00,WeatherDisplay:10.37,2013-02-07 17:20:00,
2013-02-07 11:25:00,27.0,19.5,29.97,East,85,5.8,5.8,73,0.00,CLR,,0.00,WeatherDisplay:10.37,2013-02-07 17:25:00,
2013-02-07 11:30:00,27.1,19.6,29.97,ENE,74,5.8,5.8,73,0.00,CLR,,0.00,WeatherDisplay:10.37,2013-02-07 17:30:00,
2013-02-07 11:35:00,27.3,19.8,29.97,ENE,77,5.8,5.8,73,0.00,CLR,,0.00,WeatherDisplay:10.37,2013-02-07 17:35:00,
2013-02-07 11:41:00,27.5,19.7,29.97,NE,46,5.8,5.8,72,0.00,CLR,,0.00,WeatherDisplay:10.37,2013-02-07 17:41:00,
2013-02-07 11:46:00,27.7,19.8,29.97,NE,55,5.8,5.8,72,0.00,CLR,,0.00,WeatherDisplay:10.37,2013-02-07 17:46:00,
2013-02-07 11:51:00,27.7,19.8,29.97,ENE,74,6.9,6.9,72,0.00,CLR,,0.00,WeatherDisplay:10.37,2013-02-07 17:51:00,
2013-02-07 11:56:00,27.7,19.5,29.97,ENE,72,5.8,5.8,71,0.00,CLR,,0.00,WeatherDisplay:10.37,2013-02-07 17:56:00,
2013-02-07 12:01:00,27.7,19.5,29.97,ENE,76,3.5,3.5,71,0.00,CLR,,0.00,WeatherDisplay:10.37,2013-02-07 18:01:00,
2013-02-07 12:07:00,27.9,19.3,29.97,ESE,104,4.6,4.6,70,0.00,CLR,,0.00,WeatherDisplay:10.37,2013-02-07 18:07:00,
2013-02-07 12:12:00,27.7,19.2,29.97,NNE,26,5.8,5.8,70,0.00,CLR,,0.00,WeatherDisplay:10.37,2013-02-07 18:12:00,
2013-02-07 12:17:00,27.7,18.8,29.97,ESE,102,8.1,8.1,69,0.00,CLR,,0.00,WeatherDisplay:10.37,2013-02-07 18:17:00,
2013-02-07 12:22:00,27.5,18.7,29.97,NE,46,5.8,5.8,69,0.00,CLR,,0.00,WeatherDisplay:10.37,2013-02-07 18:22:00,
2013-02-07 12:28:00,27.3,18.1,29.97,NE,54,5.8,5.8,68,0.00,CLR,,0.00,WeatherDisplay:10.37,2013-02-07 18:28:00,
2013-02-07 12:33:00,27.1,18.0,29.97,East,95,4.6,4.6,68,0.00,CLR,,0.00,WeatherDisplay:10.37,2013-02-07 18:33:00,
2013-02-07 12:38:00,27.1,18.0,29.97,ESE,111,6.9,6.9,68,0.00,CLR,,0.00,WeatherDisplay:10.37,2013-02-07 18:38:00,
2013-02-07 12:43:00,27.1,17.6,29.97,East,96,8.1,8.1,67,0.00,CLR,,0.00,WeatherDisplay:10.37,2013-02-07 18:43:00,
2013-02-07 12:49:00,27.1,17.6,29.94,ENE,70,8.1,8.1,67,0.00,CLR,,0.00,WeatherDisplay:10.37,2013-02-07 18:49:00,
2013-02-07 12:54:00,27.1,17.6,29.94,NE,54,8.1,8.1,67,0.00,CLR,,0.00,WeatherDisplay:10.37,2013-02-07 18:54:00,
2013-02-07 12:59:00,27.1,17.3,29.94,East,95,4.6,5.8,66,0.00,CLR,,0.00,WeatherDisplay:10.37,2013-02-07 18:59:00,
2013-02-07 13:04:00,27.3,17.5,29.94,ENE,60,5.8,5.8,66,0.00,CLR,,0.00,WeatherDisplay:10.37,2013-02-07 19:04:00,
2013-02-07 13:09:00,27.3,17.5,29.94,ENE,67,5.8,5.8,66,0.00,CLR,,0.00,WeatherDisplay:10.37,2013-02-07 19:09:00,
2013-02-07 13:14:00,27.3,17.1,29.94,East,92,5.8,5.8,65,0.00,CLR,,0.00,WeatherDisplay:10.37,2013-02-07 19:14:00,
2013-02-07 13:19:00,27.3,17.1,29.97,NNW,340,6.9,6.9,65,0.00,CLR,,0.00,WeatherDisplay:10.37,2013-02-07 19:19:00,
2013-02-07 13:24:00,27.1,16.9,29.97,NE,41,5.8,5.8,65,0.00,CLR,,0.00,WeatherDisplay:10.37,2013-02-07 19:24:00,
2013-02-07 13:30:00,27.0,16.8,29.97,NE,51,5.8,5.8,65,0.00,CLR,,0.00,WeatherDisplay:10.37,2013-02-07 19:30:00,
2013-02-07 13:35:00,27.0,16.8,29.97,ENE,61,5.8,5.8,65,0.00,CLR,,0.00,WeatherDisplay:10.37,2013-02-07 19:35:00,
2013-02-07 13:40:00,27.0,16.8,29.97,ENE,67,5.8,5.8,65,0.00,CLR,,0.00,WeatherDisplay:10.37,2013-02-07 19:40:00,
2013-02-07 13:45:00,26.8,16.2,29.97,ENE,78,5.8,5.8,64,0.00,CLR,,0.00,WeatherDisplay:10.37,2013-02-07 19:45:00,
2013-02-07 13:50:00,26.8,16.2,29.97,NNW,346,5.8,5.8,64,0.00,CLR,,0.00,WeatherDisplay:10.37,2013-02-07 19:50:00,
2013-02-07 13:56:00,26.6,16.4,29.97,NE,35,5.8,5.8,65,0.00,CLR,,0.00,WeatherDisplay:10.37,2013-02-07 19:56:00,
2013-02-07 14:01:00,26.6,16.4,29.97,East,94,8.1,8.1,65,0.00,CLR,,0.00,WeatherDisplay:10.37,2013-02-07 20:01:00,
2013-02-07 14:06:00,26.4,16.2,29.97,ENE,77,3.5,3.6,65,0.00,CLR,,0.00,WeatherDisplay:10.37,2013-02-07 20:06:00,
2013-02-07 14:11:00,26.4,16.2,29.97,ENE,59,5.8,5.8,65,0.00,CLR,,0.00,WeatherDisplay:10.37,2013-02-07 20:11:00,
2013-02-07 14:16:00,26.4,16.2,29.97,NNE,21,5.8,5.8,65,0.00,CLR,,0.00,WeatherDisplay:10.37,2013-02-07 20:16:00,
2013-02-07 14:22:00,26.2,16.1,29.97,NE,53,5.8,5.8,65,0.00,CLR,,0.00,WeatherDisplay:10.37,2013-02-07 20:22:00,
2013-02-07 14:27:00,26.2,16.1,29.97,East,92,5.8,6.3,65,0.00,CLR,,0.00,WeatherDisplay:10.37,2013-02-07 20:27:00,
2013-02-07 14:32:00,26.2,16.1,29.97,ENE,57,5.8,5.8,65,0.00,CLR,,0.00,WeatherDisplay:10.37,2013-02-07 20:32:00,
2013-02-07 14:37:00,26.2,16.1,29.97,ENE,77,5.8,5.8,65,0.00,CLR,,0.00,WeatherDisplay:10.37,2013-02-07 20:37:00,
2013-02-07 14:43:00,26.2,16.1,29.97,NNE,25,4.6,4.6,65,0.00,CLR,,0.00,WeatherDisplay:10.37,2013-02-07 20:43:00,
2013-02-07 14:48:00,26.4,16.2,29.97,ESE,111,4.6,4.6,65,0.00,CLR,,0.00,WeatherDisplay:10.37,2013-02-07 20:48:00,
2013-02-07 14:53:00,26.4,16.2,29.97,ENE,65,6.3,6.3,65,0.00,CLR,,0.00,WeatherDisplay:10.37,2013-02-07 20:53:00,
2013-02-07 14:58:00,26.2,16.1,29.97,East,90,6.3,6.3,65,0.00,CLR,,0.00,WeatherDisplay:10.37,2013-02-07 20:58:00,
2013-02-07 15:03:00,26.2,16.1,30.00,ESE,106,5.8,6.3,65,0.00,CLR,,0.00,WeatherDisplay:10.37,2013-02-07 21:03:00,
2013-02-07 15:09:00,26.1,15.9,30.00,ESE,108,5.8,5.8,65,0.00,CLR,,0.00,WeatherDisplay:10.37,2013-02-07 21:09:00,
2013-02-07 15:14:00,26.1,15.9,30.00,NE,39,3.5,3.6,65,0.00,CLR,,0.00,WeatherDisplay:10.37,2013-02-07 21:14:00,
2013-02-07 15:19:00,26.1,15.9,30.00,NE,49,5.8,5.8,65,0.00,CLR,,0.00,WeatherDisplay:10.37,2013-02-07 21:19:00,
2013-02-07 15:24:00,26.2,16.1,30.00,NE,41,8.1,8.1,65,0.00,CLR,,0.00,WeatherDisplay:10.37,2013-02-07 21:24:00,
2013-02-07 15:29:00,26.1,15.9,30.00,ENE,68,5.8,5.8,65,0.00,CLR,,0.00,WeatherDisplay:10.37,2013-02-07 21:29:00,
2013-02-07 15:35:00,26.1,15.9,30.00,East,95,8.1,8.1,65,0.00,CLR,,0.00,WeatherDisplay:10.37,2013-02-07 21:35:00,
2013-02-07 15:40:00,26.1,15.9,30.00,WNW,291,3.5,3.5,65,0.00,CLR,,0.00,WeatherDisplay:10.37,2013-02-07 21:40:00,
2013-02-07 15:45:00,26.1,15.9,30.00,ENE,67,4.6,4.6,65,0.00,CLR,,0.00,WeatherDisplay:10.37,2013-02-07 21:45:00,
2013-02-07 15:50:00,26.1,15.9,30.00,East,85,5.8,5.8,65,0.00,CLR,,0.00,WeatherDisplay:10.37,2013-02-07 21:50:00,
2013-02-07 15:55:00,26.1,15.9,30.00,ENE,61,6.9,6.9,65,0.00,CLR,,0.00,WeatherDisplay:10.37,2013-02-07 21:55:00,
2013-02-07 16:01:00,25.9,15.7,30.00,North,0,8.1,8.1,65,0.00,CLR,,0.00,WeatherDisplay:10.37,2013-02-07 22:01:00,
2013-02-07 16:06:00,25.9,15.7,30.00,NNE,31,5.8,5.8,65,0.00,CLR,,0.00,WeatherDisplay:10.37,2013-02-07 22:06:00,
2013-02-07 16:11:00,25.9,15.7,30.00,NE,40,4.6,4.6,65,0.00,CLR,,0.00,WeatherDisplay:10.37,2013-02-07 22:11:00,
2013-02-07 16:16:00,25.9,15.7,30.00,WNW,303,5.8,5.8,65,0.00,CLR,,0.00,WeatherDisplay:10.37,2013-02-07 22:16:00,
2013-02-07 16:21:00,25.7,15.6,30.00,ENE,64,5.8,5.8,65,0.00,CLR,,0.00,WeatherDisplay:10.37,2013-02-07 22:21:00,
2013-02-07 16:26:00,25.5,15.7,30.00,East,96,8.1,8.1,66,0.00,CLR,,0.00,WeatherDisplay:10.37,2013-02-07 22:26:00,
2013-02-07 16:32:00,25.5,15.7,30.00,East,85,5.8,5.8,66,0.00,CLR,,0.00,WeatherDisplay:10.37,2013-02-07 22:32:00,
2013-02-07 16:37:00,25.3,15.6,30.00,East,90,4.6,4.6,66,0.00,CLR,,0.00,WeatherDisplay:10.37,2013-02-07 22:37:00,
2013-02-07 16:42:00,25.3,15.9,30.00,NNE,22,4.6,4.6,67,0.00,CLR,,0.00,WeatherDisplay:10.37,2013-02-07 22:42:00,
2013-02-07 16:47:00,25.2,15.7,30.03,NNE,21,5.8,5.8,67,0.00,CLR,,0.00,WeatherDisplay:10.37,2013-02-07 22:47:00,
2013-02-07 16:52:00,25.2,15.7,30.03,NNE,12,5.8,5.8,67,0.00,CLR,,0.00,WeatherDisplay:10.37,2013-02-07 22:52:00,
2013-02-07 16:58:00,25.2,15.7,30.03,NNE,25,8.1,8.1,67,0.00,CLR,,0.00,WeatherDisplay:10.37,2013-02-07 22:58:00,
2013-02-07 17:03:00,25.0,15.6,30.03,NNE,23,5.8,5.8,67,0.00,CLR,,0.00,WeatherDisplay:10.37,2013-02-07 23:03:00,
2013-02-07 17:08:00,25.0,15.9,30.03,North,10,5.8,5.8,68,0.00,CLR,,0.00,WeatherDisplay:10.37,2013-02-07 23:08:00,
2013-02-07 17:13:00,25.0,15.9,30.03,North,357,8.1,8.1,68,0.00,CLR,,0.00,WeatherDisplay:10.37,2013-02-07 23:13:00,
2013-02-07 17:18:00,25.0,15.9,30.03,NE,38,5.8,5.8,68,0.00,CLR,,0.00,WeatherDisplay:10.37,2013-02-07 23:18:00,
2013-02-07 17:24:00,24.8,15.7,30.03,ENE,70,5.8,5.8,68,0.00,CLR,,0.00,WeatherDisplay:10.37,2013-02-07 23:24:00,
2013-02-07 17:29:00,24.8,15.7,30.03,NNW,337,4.6,4.6,68,0.00,CLR,,0.00,WeatherDisplay:10.37,2013-02-07 23:29:00,
2013-02-07 17:34:00,24.8,15.7,30.03,East,101,5.8,5.8,68,0.00,CLR,,0.00,WeatherDisplay:10.37,2013-02-07 23:34:00,
2013-02-07 17:39:00,24.8,16.1,30.03,East,100,8.1,8.1,69,0.00,CLR,,0.00,WeatherDisplay:10.37,2013-02-07 23:39:00,
2013-02-07 17:44:00,24.8,15.7,30.03,East,96,4.6,4.6,68,0.00,CLR,,0.00,WeatherDisplay:10.37,2013-02-07 23:44:00,
2013-02-07 17:50:00,24.8,15.7,30.03,ENE,75,5.8,5.8,68,0.00,CLR,,0.00,WeatherDisplay:10.37,2013-02-07 23:50:00,
2013-02-07 17:55:00,24.8,15.7,30.03,ESE,109,5.8,5.8,68,0.00,CLR,,0.00,WeatherDisplay:10.37,2013-02-07 23:55:00,
2013-02-07 18:00:00,24.8,15.7,30.03,NNW,341,5.8,5.8,68,0.00,CLR,,0.00,WeatherDisplay:10.37,2013-02-08 00:00:00,
2013-02-07 18:05:00,24.8,15.7,30.06,NE,49,8.1,8.1,68,0.00,CLR,,0.00,WeatherDisplay:10.37,2013-02-08 00:05:00,
2013-02-07 18:10:00,24.8,15.7,30.06,ENE,63,5.8,5.8,68,0.00,CLR,,0.00,WeatherDisplay:10.37,2013-02-08 00:10:00,
2013-02-07 18:15:00,24.8,15.7,30.06,NE,52,5.8,5.8,68,0.00,CLR,,0.00,WeatherDisplay:10.37,2013-02-08 00:15:00,
2013-02-07 18:21:00,24.8,15.4,30.06,East,81,3.6,3.6,67,0.00,CLR,,0.00,WeatherDisplay:10.37,2013-02-08 00:21:00,
2013-02-07 18:26:00,24.8,15.4,30.06,ENE,66,4.0,4.0,67,0.00,CLR,,0.00,WeatherDisplay:10.37,2013-02-08 00:26:00,
2013-02-07 18:31:00,24.8,15.4,30.06,East,82,5.8,5.8,67,0.00,CLR,,0.00,WeatherDisplay:10.37,2013-02-08 00:31:00,
2013-02-07 18:36:00,24.8,15.4,30.06,NNE,25,8.1,8.1,67,0.00,CLR,,0.00,WeatherDisplay:10.37,2013-02-08 00:36:00,
2013-02-07 18:41:00,24.6,15.2,30.06,NE,51,5.8,5.8,67,0.00,CLR,,0.00,WeatherDisplay:10.37,2013-02-08 00:41:00,
2013-02-07 18:46:00,24.6,15.2,30.06,East,93,5.8,5.8,67,0.00,CLR,,0.00,WeatherDisplay:10.37,2013-02-08 00:46:00,
2013-02-07 18:52:00,24.6,15.2,30.06,NNE,22,5.8,5.8,67,0.00,CLR,,0.00,WeatherDisplay:10.37,2013-02-08 00:52:00,
2013-02-07 18:57:00,24.6,15.2,30.06,ENE,65,3.5,3.5,67,0.00,CLR,,0.00,WeatherDisplay:10.37,2013-02-08 00:57:00,
2013-02-07 19:02:00,24.6,15.2,30.06,North,357,6.3,6.3,67,0.00,CLR,,0.00,WeatherDisplay:10.37,2013-02-08 01:02:00,
2013-02-07 19:07:00,24.6,15.2,30.06,NE,50,5.8,5.8,67,0.00,CLR,,0.00,WeatherDisplay:10.37,2013-02-08 01:07:00,
2013-02-07 19:12:00,24.6,15.2,30.06,North,11,6.3,6.3,67,0.00,CLR,,0.00,WeatherDisplay:10.37,2013-02-08 01:12:00,
2013-02-07 19:17:00,24.6,15.2,30.06,ENE,68,3.5,3.5,67,0.00,CLR,,0.00,WeatherDisplay:10.37,2013-02-08 01:17:00,
2013-02-07 19:22:00,24.6,15.2,30.06,NNE,33,5.8,5.8,67,0.00,CLR,,0.00,WeatherDisplay:10.37,2013-02-08 01:22:00,
2013-02-07 19:27:00,24.6,15.2,30.06,East,89,5.8,5.8,67,0.00,CLR,,0.00,WeatherDisplay:10.37,2013-02-08 01:27:00,
2013-02-07 19:33:00,24.4,15.0,30.09,ENE,75,5.8,5.8,67,0.00,CLR,,0.00,WeatherDisplay:10.37,2013-02-08 01:33:00,
2013-02-07 19:38:00,24.4,15.0,30.09,East,100,5.8,5.8,67,0.00,CLR,,0.00,WeatherDisplay:10.37,2013-02-08 01:38:00,
2013-02-07 19:43:00,24.4,15.0,30.09,NNE,32,4.6,4.6,67,0.00,CLR,,0.00,WeatherDisplay:10.37,2013-02-08 01:43:00,
2013-02-07 19:48:00,24.4,15.0,30.09,East,83,3.6,3.6,67,0.00,CLR,,0.00,WeatherDisplay:10.37,2013-02-08 01:48:00,
2013-02-07 19:53:00,24.6,15.2,30.09,NNE,31,3.5,3.6,67,0.00,CLR,,0.00,WeatherDisplay:10.37,2013-02-08 01:53:00,
2013-02-07 19:59:00,24.6,15.2,30.09,East,94,3.5,4.0,67,0.00,CLR,,0.00,WeatherDisplay:10.37,2013-02-08 01:59:00,
2013-02-07 20:04:00,24.6,15.2,30.06,North,10,3.5,3.5,67,0.00,CLR,,0.00,WeatherDisplay:10.37,2013-02-08 02:04:00,
2013-02-07 20:09:00,24.6,15.2,30.06,NNE,14,4.6,4.6,67,0.00,CLR,,0.00,WeatherDisplay:10.37,2013-02-08 02:09:00,
2013-02-07 20:14:00,24.6,15.2,30.06,ENE,70,3.5,3.5,67,0.00,CLR,,0.00,WeatherDisplay:10.37,2013-02-08 02:14:00,
2013-02-07 20:19:00,24.4,15.0,30.09,NNE,17,4.0,4.0,67,0.00,CLR,,0.00,WeatherDisplay:10.37,2013-02-08 02:19:00,
2013-02-07 20:24:00,24.4,15.0,30.09,NNW,345,3.5,3.5,67,0.00,CLR,,0.00,WeatherDisplay:10.37,2013-02-08 02:24:00,
2013-02-07 20:30:00,24.4,15.0,30.09,NNW,341,3.5,3.5,67,0.00,CLR,,0.00,WeatherDisplay:10.37,2013-02-08 02:30:00,
2013-02-07 20:35:00,24.6,15.2,30.09,ESE,104,3.5,3.5,67,0.00,CLR,,0.00,WeatherDisplay:10.37,2013-02-08 02:35:00,
2013-02-07 20:40:00,24.6,15.2,30.09,ENE,71,4.6,4.6,67,0.00,CLR,,0.00,WeatherDisplay:10.37,2013-02-08 02:40:00,
2013-02-07 20:45:00,24.6,15.2,30.09,ENE,61,3.5,3.6,67,0.00,CLR,,0.00,WeatherDisplay:10.37,2013-02-08 02:45:00,
2013-02-07 20:50:00,24.6,15.2,30.09,ENE,71,5.8,5.8,67,0.00,CLR,,0.00,WeatherDisplay:10.37,2013-02-08 02:50:00,
2013-02-07 20:55:00,24.6,15.2,30.09,North,8,3.6,3.6,67,0.00,CLR,,0.00,WeatherDisplay:10.37,2013-02-08 02:55:00,
2013-02-07 21:01:00,24.6,15.2,30.09,NE,35,5.8,5.8,67,0.00,CLR,,0.00,WeatherDisplay:10.37,2013-02-08 03:01:00,
2013-02-07 21:06:00,24.6,15.2,30.09,North,357,3.5,3.5,67,0.00,CLR,,0.00,WeatherDisplay:10.37,2013-02-08 03:06:00,
2013-02-07 21:11:00,24.6,15.2,30.09,ENE,64,3.6,3.6,67,0.00,CLR,,0.00,WeatherDisplay:10.37,2013-02-08 03:11:00,
2013-02-07 21:16:00,24.6,15.2,30.09,ENE,68,3.6,3.6,67,0.00,CLR,,0.00,WeatherDisplay:10.37,2013-02-08 03:16:00,
2013-02-07 21:21:00,24.6,15.2,30.09,NNW,327,3.5,3.5,67,0.00,CLR,,0.00,WeatherDisplay:10.37,2013-02-08 03:21:00,
2013-02-07 21:26:00,24.6,15.2,30.09,NNE,24,6.9,6.9,67,0.00,CLR,,0.00,WeatherDisplay:10.37,2013-02-08 03:26:00,
2013-02-07 21:32:00,24.6,15.2,30.09,NE,46,5.8,5.8,67,0.00,CLR,,0.00,WeatherDisplay:10.37,2013-02-08 03:32:00,
2013-02-07 21:37:00,24.6,14.9,30.09,NE,40,8.0,8.0,66,0.00,CLR,,0.00,WeatherDisplay:10.37,2013-02-08 03:37:00,
2013-02-07 21:42:00,24.6,14.9,30.09,NNE,30,5.8,5.8,66,0.00,CLR,,0.00,WeatherDisplay:10.37,2013-02-08 03:42:00,
2013-02-07 21:48:00,24.6,14.9,30.09,NE,53,4.6,4.6,66,0.00,CLR,,0.00,WeatherDisplay:10.37,2013-02-08 03:48:00,
2013-02-07 21:53:00,24.6,14.9,30.09,East,89,5.8,5.8,66,0.00,CLR,,0.00,WeatherDisplay:10.37,2013-02-08 03:53:00,
2013-02-07 21:58:00,24.6,14.9,30.09,East,94,4.6,4.6,66,0.00,CLR,,0.00,WeatherDisplay:10.37,2013-02-08 03:58:00,
2013-02-07 22:03:00,24.6,14.9,30.12,East,88,3.5,3.5,66,0.00,CLR,,0.00,WeatherDisplay:10.37,2013-02-08 04:03:00,
2013-02-07 22:08:00,24.6,14.9,30.12,NE,37,8.1,8.1,66,0.00,CLR,,0.00,WeatherDisplay:10.37,2013-02-08 04:08:00,
2013-02-07 22:14:00,24.6,14.9,30.12,ENE,60,10.4,10.4,66,0.00,CLR,,0.00,WeatherDisplay:10.37,2013-02-08 04:14:00,
2013-02-07 22:19:00,24.6,14.9,30.12,North,9,6.9,6.9,66,0.00,CLR,,0.00,WeatherDisplay:10.37,2013-02-08 04:19:00,
2013-02-07 22:24:00,24.4,14.7,30.12,East,79,3.5,3.5,66,0.00,CLR,,0.00,WeatherDisplay:10.37,2013-02-08 04:24:00,
2013-02-07 22:29:00,24.4,14.7,30.12,NNE,31,5.8,5.8,66,0.00,CLR,,0.00,WeatherDisplay:10.37,2013-02-08 04:29:00,
2013-02-07 22:34:00,24.4,14.7,30.12,North,0,3.5,3.5,66,0.00,CLR,,0.00,WeatherDisplay:10.37,2013-02-08 04:34:00,
2013-02-07 22:40:00,24.4,14.7,30.12,East,89,4.6,4.6,66,0.00,CLR,,0.00,WeatherDisplay:10.37,2013-02-08 04:40:00,
2013-02-07 22:45:00,24.4,14.7,30.12,NE,44,3.5,3.5,66,0.00,CLR,,0.00,WeatherDisplay:10.37,2013-02-08 04:45:00,
2013-02-07 22:50:00,24.4,14.7,30.12,NNE,12,3.5,3.6,66,0.00,CLR,,0.00,WeatherDisplay:10.37,2013-02-08 04:50:00,
2013-02-07 22:55:00,24.3,14.5,30.12,ENE,77,5.8,5.8,66,0.00,CLR,,0.00,WeatherDisplay:10.37,2013-02-08 04:55:00,
2013-02-07 23:00:00,24.3,14.9,30.12,East,92,4.6,4.6,67,0.00,CLR,,0.00,WeatherDisplay:10.37,2013-02-08 05:00:00,
2013-02-07 23:03:00,24.3,14.9,30.12,NNE,17,5.8,5.8,67,0.00,CLR,,0.00,WeatherDisplay:10.37,2013-02-08 05:03:00,
2013-02-07 23:08:00,24.1,14.7,30.12,NNW,331,3.5,3.5,67,0.00,CLR,,0.00,WeatherDisplay:10.37,2013-02-08 05:08:00,
2013-02-07 23:09:00,24.1,14.7,30.12,North,8,5.8,5.8,67,0.00,CLR,,0.00,WeatherDisplay:10.37,2013-02-08 05:09:00,
2013-02-07 23:14:00,24.1,14.7,30.12,NNE,18,3.5,3.5,67,0.00,CLR,,0.00,WeatherDisplay:10.37,2013-02-08 05:14:00,
2013-02-07 23:19:00,24.1,14.7,30.12,North,6,5.8,5.8,67,0.00,CLR,,0.00,WeatherDisplay:10.37,2013-02-08 05:19:00,
2013-02-07 23:25:00,23.9,14.5,30.12,ENE,68,3.5,3.5,67,0.00,CLR,,0.00,WeatherDisplay:10.37,2013-02-08 05:25:00,
2013-02-07 23:30:00,23.9,14.5,30.12,North,353,5.8,5.8,67,0.00,CLR,,0.00,WeatherDisplay:10.37,2013-02-08 05:30:00,
2013-02-07 23:35:00,23.9,14.2,30.15,East,93,3.5,3.5,66,0.00,CLR,,0.00,WeatherDisplay:10.37,2013-02-08 05:35:00,
2013-02-07 23:40:00,23.9,14.2,30.15,North,357,3.5,3.5,66,0.00,CLR,,0.00,WeatherDisplay:10.37,2013-02-08 05:40:00,
2013-02-07 23:45:00,23.9,14.2,30.15,NE,43,5.8,5.8,66,0.00,CLR,,0.00,WeatherDisplay:10.37,2013-02-08 05:45:00,
2013-02-07 23:50:00,23.7,14.0,30.15,NNE,20,5.8,5.8,66,0.00,CLR,,0.00,WeatherDisplay:10.37,2013-02-08 05:50:00,
2013-02-07 23:56:00,23.7,13.7,30.15,NNE,25,6.9,6.9,65,0.00,CLR,,0.00,WeatherDisplay:10.37,2013-02-08 05:56:00,